Time,TemperatureF,DewpointF,PressureIn,WindDirection,WindDirectionDegrees,WindSpeedMPH,WindSpeedGustMPH,Humidity,HourlyPrecipIn,Conditions,Clouds,dailyrainin,SoftwareType,DateUTC
2013-08-11 00:00:00,67.3,58.7,30.09,East,97,0.0,0.0,74,0.00,,---,0.01,VWS V14.01,2013-08-11 05:00:00,
2013-08-11 00:01:00,66.8,60.1,30.09,East,97,0.0,0.0,79,0.00,,---,0.00,VWS V14.01,2013-08-11 05:01:00,
2013-08-11 00:06:00,66.8,60.1,30.09,East,97,0.0,0.0,79,0.00,,---,0.00,VWS V14.01,2013-08-11 05:06:00,
2013-08-11 00:11:00,66.6,59.9,30.09,East,97,0.0,0.0,79,0.00,,---,0.00,VWS V14.01,2013-08-11 05:11:00,
2013-08-11 00:16:00,66.6,60.2,30.09,East,97,0.0,0.0,80,0.00,,---,0.00,VWS V14.01,2013-08-11 05:16:00,
2013-08-11 00:21:00,66.6,60.2,30.09,East,97,0.0,0.0,80,0.00,,---,0.00,VWS V14.01,2013-08-11 05:21:00,
2013-08-11 00:26:00,66.8,60.4,30.09,East,97,0.0,0.0,80,0.00,,---,0.00,VWS V14.01,2013-08-11 05:26:00,
2013-08-11 00:30:00,67.3,59.8,30.09,East,97,0.0,0.0,77,0.00,,---,0.01,VWS V14.01,2013-08-11 05:30:00,
2013-08-11 00:31:00,66.8,60.4,30.09,East,97,0.0,0.0,80,0.00,,---,0.00,VWS V14.01,2013-08-11 05:31:00,
2013-08-11 00:37:00,66.8,60.4,30.09,East,97,0.0,0.0,80,0.00,,---,0.00,VWS V14.01,2013-08-11 05:37:00,
2013-08-11 00:42:00,66.4,60.0,30.09,East,97,0.0,0.0,80,0.00,,---,0.00,VWS V14.01,2013-08-11 05:42:00,
2013-08-11 00:47:00,66.4,60.0,30.09,East,97,0.0,0.0,80,0.00,,---,0.00,VWS V14.01,2013-08-11 05:47:00,
2013-08-11 00:52:00,66.3,60.0,30.09,East,97,0.0,0.0,80,0.00,,---,0.00,VWS V14.01,2013-08-11 05:52:00,
2013-08-11 00:57:00,66.3,60.0,30.09,East,97,0.0,0.0,80,0.00,,---,0.00,VWS V14.01,2013-08-11 05:57:00,
2013-08-11 01:00:00,66.8,60.1,30.09,East,97,0.0,0.0,79,0.00,,---,0.01,VWS V14.01,2013-08-11 06:00:00,
2013-08-11 01:02:00,66.3,60.3,30.09,East,97,0.0,0.0,81,0.00,,---,0.00,VWS V14.01,2013-08-11 06:02:00,
2013-08-11 01:07:00,66.1,60.1,30.09,East,97,0.0,0.0,81,0.00,,---,0.00,VWS V14.01,2013-08-11 06:07:00,
2013-08-11 01:12:00,66.0,60.0,30.09,East,97,0.0,0.0,81,0.00,,---,0.00,VWS V14.01,2013-08-11 06:12:00,
2013-08-11 01:17:00,65.8,59.8,30.08,East,97,0.0,0.0,81,0.00,,---,0.00,VWS V14.01,2013-08-11 06:17:00,
2013-08-11 01:22:00,65.5,59.5,30.08,East,97,0.0,0.0,81,0.00,,---,0.00,VWS V14.01,2013-08-11 06:22:00,
2013-08-11 01:27:00,65.3,59.3,30.08,East,97,0.0,0.0,81,0.00,,---,0.00,VWS V14.01,2013-08-11 06:27:00,
2013-08-11 01:30:00,66.8,60.4,30.09,East,97,0.0,0.0,80,0.00,,---,0.00,VWS V14.01,2013-08-11 06:30:00,
2013-08-11 01:32:00,65.0,59.0,30.09,East,97,0.0,0.0,81,0.00,,---,0.00,VWS V14.01,2013-08-11 06:32:00,
2013-08-11 01:38:00,64.7,58.7,30.09,East,97,0.0,0.0,81,0.00,,---,0.00,VWS V14.01,2013-08-11 06:38:00,
2013-08-11 01:43:00,64.3,58.7,30.09,East,97,0.0,0.0,82,0.00,,---,0.00,VWS V14.01,2013-08-11 06:43:00,
2013-08-11 01:48:00,64.0,58.4,30.09,East,97,0.0,0.0,82,0.00,,---,0.00,VWS V14.01,2013-08-11 06:48:00,
2013-08-11 01:53:00,63.9,58.3,30.09,East,97,0.0,0.0,82,0.00,,---,0.00,VWS V14.01,2013-08-11 06:53:00,
2013-08-11 01:58:00,63.7,58.1,30.09,East,97,0.0,0.0,82,0.00,,---,0.00,VWS V14.01,2013-08-11 06:58:00,
2013-08-11 02:00:00,66.3,60.3,30.09,East,97,0.0,0.0,81,0.00,,---,0.00,VWS V14.01,2013-08-11 07:00:00,
2013-08-11 02:03:00,63.7,58.5,30.09,East,97,0.0,0.0,83,0.00,,---,0.00,VWS V14.01,2013-08-11 07:03:00,
2013-08-11 02:08:00,63.7,58.5,30.09,East,97,0.0,0.0,83,0.00,,---,0.00,VWS V14.01,2013-08-11 07:08:00,
2013-08-11 02:13:00,63.7,58.5,30.09,East,97,0.0,0.0,83,0.00,,---,0.00,VWS V14.01,2013-08-11 07:13:00,
2013-08-11 02:19:00,63.5,58.2,30.09,East,97,0.0,0.0,83,0.00,,---,0.00,VWS V14.01,2013-08-11 07:19:00,
2013-08-11 02:24:00,63.2,58.3,30.09,East,97,0.0,0.0,84,0.00,,---,0.00,VWS V14.01,2013-08-11 07:24:00,
2013-08-11 02:29:00,63.1,58.2,30.09,East,97,0.0,0.0,84,0.00,,---,0.00,VWS V14.01,2013-08-11 07:29:00,
2013-08-11 02:30:00,65.2,59.2,30.09,East,97,0.0,0.0,81,0.00,,---,0.00,VWS V14.01,2013-08-11 07:30:00,
2013-08-11 02:34:00,62.7,57.8,30.09,East,97,0.0,0.0,84,0.00,,---,0.00,VWS V14.01,2013-08-11 07:34:00,
2013-08-11 02:39:00,62.6,57.7,30.09,East,97,0.0,0.0,84,0.00,,---,0.00,VWS V14.01,2013-08-11 07:39:00,
2013-08-11 02:44:00,62.4,57.5,30.09,East,97,0.0,0.0,84,0.00,,---,0.00,VWS V14.01,2013-08-11 07:44:00,
2013-08-11 02:49:00,62.3,57.7,30.09,East,97,0.0,0.0,85,0.00,,---,0.00,VWS V14.01,2013-08-11 07:49:00,
2013-08-11 02:54:00,62.4,57.8,30.09,East,97,0.0,0.0,85,0.00,,---,0.00,VWS V14.01,2013-08-11 07:54:00,
2013-08-11 02:59:00,62.7,58.5,30.08,East,97,0.0,0.0,86,0.00,,---,0.00,VWS V14.01,2013-08-11 07:59:00,
2013-08-11 03:00:00,63.7,58.1,30.09,East,97,0.0,0.0,82,0.00,,---,0.00,VWS V14.01,2013-08-11 08:00:00,
2013-08-11 03:04:00,63.2,59.0,30.08,East,97,0.0,0.0,86,0.00,,---,0.00,VWS V14.01,2013-08-11 08:04:00,
2013-08-11 03:10:00,63.7,59.4,30.08,East,97,0.0,0.0,86,0.00,,---,0.00,VWS V14.01,2013-08-11 08:10:00,
2013-08-11 03:14:00,64.2,59.9,30.08,East,97,0.0,0.0,86,0.00,,---,0.00,VWS V14.01,2013-08-11 08:14:00,
2013-08-11 03:20:00,64.2,59.6,30.08,East,97,0.0,0.0,85,0.00,,---,0.00,VWS V14.01,2013-08-11 08:20:00,
2013-08-11 03:25:00,64.2,59.6,30.08,East,97,0.0,0.0,85,0.00,,---,0.00,VWS V14.01,2013-08-11 08:25:00,
2013-08-11 03:30:00,63.9,59.3,30.08,East,97,0.0,0.0,85,0.00,,---,0.00,VWS V14.01,2013-08-11 08:30:00,
2013-08-11 03:35:00,63.7,59.1,30.08,East,97,0.0,0.0,85,0.00,,---,0.00,VWS V14.01,2013-08-11 08:35:00,
2013-08-11 03:40:00,63.4,59.2,30.08,East,97,0.0,0.0,86,0.00,,---,0.00,VWS V14.01,2013-08-11 08:40:00,
2013-08-11 03:45:00,63.1,58.8,30.08,East,97,0.0,0.0,86,0.00,,---,0.00,VWS V14.01,2013-08-11 08:45:00,
2013-08-11 03:50:00,62.7,58.5,30.08,East,97,0.0,0.0,86,0.00,,---,0.00,VWS V14.01,2013-08-11 08:50:00,
2013-08-11 03:55:00,62.6,58.4,30.08,East,97,0.0,0.0,86,0.00,,---,0.00,VWS V14.01,2013-08-11 08:55:00,
2013-08-11 04:00:00,62.6,58.4,30.08,East,97,0.0,0.0,86,0.00,,---,0.00,VWS V14.01,2013-08-11 09:00:00,
2013-08-11 04:05:00,62.7,58.8,30.08,East,97,0.0,0.0,87,0.00,,---,0.00,VWS V14.01,2013-08-11 09:05:00,
2013-08-11 04:10:00,63.2,59.0,30.08,East,97,0.0,0.0,86,0.00,,---,0.00,VWS V14.01,2013-08-11 09:10:00,
2013-08-11 04:15:00,63.4,59.2,30.08,East,97,0.0,0.0,86,0.00,,---,0.00,VWS V14.01,2013-08-11 09:15:00,
2013-08-11 04:20:00,63.7,59.4,30.08,East,97,0.0,0.0,86,0.00,,---,0.00,VWS V14.01,2013-08-11 09:20:00,
2013-08-11 04:26:00,64.0,59.7,30.08,East,97,0.0,0.0,86,0.00,,---,0.00,VWS V14.01,2013-08-11 09:26:00,
2013-08-11 04:30:00,63.9,59.3,30.08,East,97,0.0,0.0,85,0.00,,---,0.00,VWS V14.01,2013-08-11 09:30:00,
2013-08-11 04:31:00,64.3,60.0,30.07,East,97,0.0,0.0,86,0.00,,---,0.00,VWS V14.01,2013-08-11 09:31:00,
2013-08-11 04:36:00,64.5,59.9,30.07,East,97,0.0,0.0,85,0.00,,---,0.00,VWS V14.01,2013-08-11 09:36:00,
2013-08-11 04:41:00,64.7,60.1,30.07,East,97,0.0,0.0,85,0.00,,---,0.00,VWS V14.01,2013-08-11 09:41:00,
2013-08-11 04:46:00,64.5,59.9,30.07,East,97,0.0,0.0,85,0.00,,---,0.00,VWS V14.01,2013-08-11 09:46:00,
2013-08-11 04:51:00,64.5,59.9,30.07,East,97,0.0,0.0,85,0.00,,---,0.00,VWS V14.01,2013-08-11 09:51:00,
2013-08-11 04:56:00,64.0,59.4,30.07,East,97,0.0,0.0,85,0.00,,---,0.00,VWS V14.01,2013-08-11 09:56:00,
2013-08-11 05:00:00,62.6,58.4,30.08,East,97,0.0,0.0,86,0.00,,---,0.00,VWS V14.01,2013-08-11 10:00:00,
2013-08-11 05:01:00,63.7,59.1,30.07,East,97,0.0,0.0,85,0.00,,---,0.00,VWS V14.01,2013-08-11 10:01:00,
2013-08-11 05:07:00,63.5,58.9,30.07,East,97,0.0,0.0,85,0.00,,---,0.00,VWS V14.01,2013-08-11 10:07:00,
2013-08-11 05:12:00,63.4,58.8,30.07,East,97,0.0,0.0,85,0.00,,---,0.00,VWS V14.01,2013-08-11 10:12:00,
2013-08-11 05:17:00,63.4,58.8,30.06,East,97,0.0,0.0,85,0.00,,---,0.00,VWS V14.01,2013-08-11 10:17:00,
2013-08-11 05:23:00,63.5,58.9,30.06,East,97,0.0,0.0,85,0.00,,---,0.00,VWS V14.01,2013-08-11 10:23:00,
2013-08-11 05:28:00,63.7,59.1,30.06,East,97,0.0,0.0,85,0.00,,---,0.00,VWS V14.01,2013-08-11 10:28:00,
2013-08-11 05:30:00,64.3,60.0,30.07,East,97,0.0,0.0,86,0.00,,---,0.00,VWS V14.01,2013-08-11 10:30:00,
2013-08-11 05:33:00,63.7,59.1,30.07,East,97,0.0,0.0,85,0.00,,---,0.00,VWS V14.01,2013-08-11 10:33:00,
2013-08-11 05:38:00,63.7,59.1,30.07,East,97,0.0,0.0,85,0.00,,---,0.00,VWS V14.01,2013-08-11 10:38:00,
2013-08-11 05:43:00,63.7,59.1,30.07,East,97,0.0,0.0,85,0.00,,---,0.00,VWS V14.01,2013-08-11 10:43:00,
2013-08-11 05:48:00,63.7,59.1,30.07,East,97,0.0,0.0,85,0.00,,---,0.00,VWS V14.01,2013-08-11 10:48:00,
2013-08-11 05:53:00,63.7,59.1,30.07,East,98,0.0,0.0,85,0.00,,---,0.00,VWS V14.01,2013-08-11 10:53:00,
2013-08-11 05:58:00,63.9,59.3,30.07,East,97,0.0,0.0,85,0.00,,---,0.00,VWS V14.01,2013-08-11 10:58:00,
2013-08-11 06:00:00,63.9,59.3,30.07,East,97,0.0,0.0,85,0.00,,---,0.00,VWS V14.01,2013-08-11 11:00:00,
2013-08-11 06:03:00,64.0,59.4,30.07,East,98,0.0,0.0,85,0.00,,---,0.00,VWS V14.01,2013-08-11 11:03:00,
2013-08-11 06:09:00,64.0,59.4,30.07,East,98,0.0,0.0,85,0.00,,---,0.00,VWS V14.01,2013-08-11 11:09:00,
2013-08-11 06:14:00,64.0,59.1,30.07,East,97,0.0,0.0,84,0.00,,---,0.00,VWS V14.01,2013-08-11 11:14:00,
2013-08-11 06:19:00,63.9,59.0,30.08,East,97,0.0,0.0,84,0.00,,---,0.00,VWS V14.01,2013-08-11 11:19:00,
2013-08-11 06:24:00,63.9,59.3,30.08,East,97,0.0,0.0,85,0.00,,---,0.00,VWS V14.01,2013-08-11 11:24:00,
2013-08-11 06:29:00,63.7,59.1,30.08,East,98,0.0,0.0,85,0.00,,---,0.00,VWS V14.01,2013-08-11 11:29:00,
2013-08-11 06:30:00,63.7,59.1,30.07,East,97,0.0,0.0,85,0.00,,---,0.00,VWS V14.01,2013-08-11 11:30:00,
2013-08-11 06:34:00,63.7,59.1,30.07,East,97,0.0,0.0,85,0.00,,---,0.00,VWS V14.01,2013-08-11 11:34:00,
2013-08-11 06:39:00,63.9,59.3,30.07,East,97,0.0,0.0,85,0.00,,---,0.00,VWS V14.01,2013-08-11 11:39:00,
2013-08-11 06:44:00,63.9,59.0,30.07,East,97,0.0,0.0,84,0.00,,---,0.00,VWS V14.01,2013-08-11 11:44:00,
2013-08-11 06:49:00,63.9,59.3,30.07,East,98,0.0,0.0,85,0.00,,---,0.00,VWS V14.01,2013-08-11 11:49:00,
2013-08-11 06:55:00,64.0,59.4,30.07,East,100,0.0,0.0,85,0.00,,---,0.00,VWS V14.01,2013-08-11 11:55:00,
2013-08-11 07:00:00,64.2,59.6,30.07,East,100,0.0,0.0,85,0.00,,---,0.00,VWS V14.01,2013-08-11 12:00:00,
2013-08-11 07:05:00,64.5,59.6,30.07,East,100,0.0,1.0,84,0.00,,---,0.00,VWS V14.01,2013-08-11 12:05:00,
2013-08-11 07:10:00,64.8,59.9,30.07,East,100,0.0,1.0,84,0.00,,---,0.00,VWS V14.01,2013-08-11 12:10:00,
2013-08-11 07:15:00,65.3,60.3,30.07,East,100,0.0,1.0,84,0.00,,---,0.00,VWS V14.01,2013-08-11 12:15:00,
2013-08-11 07:20:00,65.6,60.6,30.07,East,100,0.0,1.0,84,0.00,,---,0.00,VWS V14.01,2013-08-11 12:20:00,
2013-08-11 07:25:00,66.0,61.0,30.07,East,100,0.0,1.0,84,0.00,,---,0.00,VWS V14.01,2013-08-11 12:25:00,
2013-08-11 07:30:00,66.4,61.1,30.08,East,101,0.0,2.0,83,0.00,,---,0.00,VWS V14.01,2013-08-11 12:30:00,
2013-08-11 07:35:00,66.8,61.5,30.08,East,101,0.0,1.0,83,0.00,,---,0.00,VWS V14.01,2013-08-11 12:35:00,
2013-08-11 07:41:00,67.3,62.0,30.08,ESE,106,0.0,2.0,83,0.00,,---,0.00,VWS V14.01,2013-08-11 12:41:00,
2013-08-11 07:46:00,67.6,61.9,30.08,ESE,106,0.0,2.0,82,0.00,,---,0.00,VWS V14.01,2013-08-11 12:46:00,
2013-08-11 07:51:00,67.9,62.2,30.08,South,175,0.0,3.0,82,0.00,,---,0.00,VWS V14.01,2013-08-11 12:51:00,
2013-08-11 07:56:00,68.3,62.6,30.08,ESE,114,0.0,3.0,82,0.00,,---,0.00,VWS V14.01,2013-08-11 12:56:00,
2013-08-11 08:00:00,64.2,59.6,30.07,East,100,0.0,0.0,85,0.00,,---,0.00,VWS V14.01,2013-08-11 13:00:00,
2013-08-11 08:01:00,68.8,63.1,30.07,SE,127,0.0,1.0,82,0.00,,---,0.00,VWS V14.01,2013-08-11 13:01:00,
2013-08-11 08:06:00,69.1,63.0,30.07,SE,132,0.0,2.0,81,0.00,,---,0.00,VWS V14.01,2013-08-11 13:06:00,
2013-08-11 08:11:00,69.6,63.5,30.07,ESE,122,0.0,2.0,81,0.00,,---,0.00,VWS V14.01,2013-08-11 13:11:00,
2013-08-11 08:16:00,69.9,63.5,30.07,SE,146,0.0,3.0,80,0.00,,---,0.00,VWS V14.01,2013-08-11 13:16:00,
2013-08-11 08:21:00,70.3,63.8,30.07,SE,144,0.0,3.0,80,0.00,,---,0.00,VWS V14.01,2013-08-11 13:21:00,
2013-08-11 08:26:00,70.6,63.8,30.07,SE,142,2.0,3.0,79,0.00,,---,0.00,VWS V14.01,2013-08-11 13:26:00,
2013-08-11 08:30:00,66.4,61.1,30.08,East,101,0.0,2.0,83,0.00,,---,0.00,VWS V14.01,2013-08-11 13:30:00,
2013-08-11 08:31:00,70.9,64.1,30.07,SSE,149,1.0,2.0,79,0.00,,---,0.00,VWS V14.01,2013-08-11 13:31:00,
2013-08-11 08:37:00,71.5,64.3,30.07,SSE,159,2.0,5.0,78,0.00,,---,0.00,VWS V14.01,2013-08-11 13:37:00,
2013-08-11 08:42:00,71.6,64.4,30.07,SE,135,2.0,5.0,78,0.00,,---,0.00,VWS V14.01,2013-08-11 13:42:00,
2013-08-11 08:47:00,72.0,64.8,30.07,SSE,151,0.0,5.0,78,0.00,,---,0.00,VWS V14.01,2013-08-11 13:47:00,
2013-08-11 08:52:00,72.3,64.7,30.07,ESE,103,1.0,7.0,77,0.00,,---,0.00,VWS V14.01,2013-08-11 13:52:00,
2013-08-11 08:57:00,72.5,64.5,30.07,SE,131,0.0,7.0,76,0.00,,---,0.00,VWS V14.01,2013-08-11 13:57:00,
2013-08-11 09:00:00,68.6,62.9,30.07,SE,127,0.0,3.0,82,0.00,,---,0.00,VWS V14.01,2013-08-11 14:00:00,
2013-08-11 09:02:00,73.0,65.0,30.07,East,99,2.0,3.0,76,0.00,,---,0.00,VWS V14.01,2013-08-11 14:02:00,
2013-08-11 09:07:00,73.3,64.9,30.07,East,96,1.0,4.0,75,0.00,,---,0.00,VWS V14.01,2013-08-11 14:07:00,
2013-08-11 09:12:00,73.9,65.5,30.07,SSE,152,3.0,4.0,75,0.00,,---,0.00,VWS V14.01,2013-08-11 14:12:00,
2013-08-11 09:17:00,74.0,65.2,30.07,SSE,152,6.0,7.0,74,0.00,,---,0.00,VWS V14.01,2013-08-11 14:17:00,
2013-08-11 09:22:00,74.2,65.0,30.07,SSE,147,2.0,7.0,73,0.00,,---,0.00,VWS V14.01,2013-08-11 14:22:00,
2013-08-11 09:27:00,74.4,65.2,30.07,ESE,123,0.0,7.0,73,0.00,,---,0.00,VWS V14.01,2013-08-11 14:27:00,
2013-08-11 09:30:00,70.9,64.1,30.07,South,169,0.0,3.0,79,0.00,,---,0.00,VWS V14.01,2013-08-11 14:30:00,
2013-08-11 09:32:00,74.9,65.7,30.07,SSE,157,1.0,5.0,73,0.00,,---,0.00,VWS V14.01,2013-08-11 14:32:00,
2013-08-11 09:37:00,75.1,65.5,30.07,ESE,107,3.0,5.0,72,0.00,,---,0.00,VWS V14.01,2013-08-11 14:37:00,
2013-08-11 09:42:00,75.4,65.8,30.07,SE,126,0.0,5.0,72,0.00,,---,0.00,VWS V14.01,2013-08-11 14:42:00,
2013-08-11 09:47:00,75.6,65.5,30.06,SE,145,3.0,5.0,71,0.00,,---,0.00,VWS V14.01,2013-08-11 14:47:00,
2013-08-11 09:52:00,76.1,66.0,30.06,SE,132,1.0,5.0,71,0.00,,---,0.00,VWS V14.01,2013-08-11 14:52:00,
2013-08-11 09:58:00,76.7,66.2,30.06,ESE,110,1.0,5.0,70,0.00,,---,0.00,VWS V14.01,2013-08-11 14:58:00,
2013-08-11 10:00:00,72.8,64.8,30.07,SSE,161,1.0,7.0,76,0.00,,---,0.00,VWS V14.01,2013-08-11 15:00:00,
2013-08-11 10:03:00,76.7,65.8,30.06,SSE,148,1.0,3.0,69,0.00,,---,0.00,VWS V14.01,2013-08-11 15:03:00,
2013-08-11 10:08:00,77.0,65.6,30.06,SE,138,3.0,3.0,68,0.00,,---,0.00,VWS V14.01,2013-08-11 15:08:00,
2013-08-11 10:13:00,77.2,65.8,30.06,ESE,118,0.0,7.0,68,0.00,,---,0.00,VWS V14.01,2013-08-11 15:13:00,
2013-08-11 10:18:00,77.4,65.6,30.06,South,173,1.0,7.0,67,0.00,,---,0.00,VWS V14.01,2013-08-11 15:18:00,
2013-08-11 10:23:00,77.7,65.9,30.06,ESE,109,2.0,7.0,67,0.00,,---,0.00,VWS V14.01,2013-08-11 15:23:00,
2013-08-11 10:28:00,78.1,66.3,30.06,SSW,209,0.0,7.0,67,0.00,,---,0.00,VWS V14.01,2013-08-11 15:28:00,
2013-08-11 10:30:00,74.7,65.5,30.07,SSE,148,1.0,7.0,73,0.00,,---,0.00,VWS V14.01,2013-08-11 15:30:00,
2013-08-11 10:33:00,78.6,66.7,30.06,South,190,1.0,2.0,67,0.00,,---,0.00,VWS V14.01,2013-08-11 15:33:00,
2013-08-11 10:38:00,79.2,66.9,30.06,SSE,165,1.0,3.0,66,0.00,,---,0.00,VWS V14.01,2013-08-11 15:38:00,
2013-08-11 10:43:00,79.2,66.9,30.06,South,182,0.0,4.0,66,0.00,,---,0.00,VWS V14.01,2013-08-11 15:43:00,
2013-08-11 10:48:00,79.4,66.6,30.07,SW,215,1.0,4.0,65,0.00,,---,0.00,VWS V14.01,2013-08-11 15:48:00,
2013-08-11 10:53:00,79.6,66.8,30.07,SSE,165,1.0,4.0,65,0.00,,---,0.00,VWS V14.01,2013-08-11 15:53:00,
2013-08-11 10:58:00,79.8,67.0,30.07,SE,124,1.0,4.0,65,0.00,,---,0.00,VWS V14.01,2013-08-11 15:58:00,
2013-08-11 11:00:00,76.7,65.8,30.06,ESE,115,2.0,5.0,69,0.00,,---,0.00,VWS V14.01,2013-08-11 16:00:00,
2013-08-11 11:03:00,80.1,66.8,30.07,SSE,151,1.0,4.0,64,0.00,,---,0.00,VWS V14.01,2013-08-11 16:03:00,
2013-08-11 11:08:00,80.3,67.0,30.07,South,169,1.0,4.0,64,0.00,,---,0.00,VWS V14.01,2013-08-11 16:08:00,
2013-08-11 11:13:00,80.3,67.5,30.07,ESE,108,1.0,4.0,65,0.00,,---,0.00,VWS V14.01,2013-08-11 16:13:00,
2013-08-11 11:18:00,80.5,67.2,30.07,ESE,115,0.0,4.0,64,0.00,,---,0.00,VWS V14.01,2013-08-11 16:18:00,
2013-08-11 11:23:00,80.7,67.4,30.07,SE,133,0.0,4.0,64,0.00,,---,0.00,VWS V14.01,2013-08-11 16:23:00,
2013-08-11 11:29:00,81.1,67.8,30.07,ESE,111,1.0,5.0,64,0.00,,---,0.00,VWS V14.01,2013-08-11 16:29:00,
2013-08-11 11:30:00,78.3,66.4,30.06,West,273,1.0,7.0,67,0.00,,---,0.00,VWS V14.01,2013-08-11 16:30:00,
2013-08-11 11:34:00,81.1,67.8,30.07,SE,128,1.0,3.0,64,0.00,,---,0.00,VWS V14.01,2013-08-11 16:34:00,
2013-08-11 11:39:00,81.4,68.1,30.07,SE,124,2.0,3.0,64,0.00,,---,0.00,VWS V14.01,2013-08-11 16:39:00,
2013-08-11 11:44:00,81.6,68.2,30.07,SE,143,0.0,3.0,64,0.00,,---,0.00,VWS V14.01,2013-08-11 16:44:00,
2013-08-11 11:49:00,82.0,68.2,30.07,SSE,152,3.0,4.0,63,0.00,,---,0.00,VWS V14.01,2013-08-11 16:49:00,
2013-08-11 11:54:00,82.0,68.2,30.07,SSE,162,0.0,4.0,63,0.00,,---,0.00,VWS V14.01,2013-08-11 16:54:00,
2013-08-11 11:59:00,82.2,68.8,30.07,SSE,158,1.0,4.0,64,0.00,,---,0.00,VWS V14.01,2013-08-11 16:59:00,
2013-08-11 12:00:00,79.9,67.1,30.07,SSE,151,0.0,4.0,65,0.00,,---,0.00,VWS V14.01,2013-08-11 17:00:00,
2013-08-11 12:05:00,82.2,68.4,30.07,South,178,1.0,4.0,63,0.00,,---,0.00,VWS V14.01,2013-08-11 17:05:00,
2013-08-11 12:10:00,82.4,68.6,30.07,SSE,150,0.0,4.0,63,0.00,,---,0.00,VWS V14.01,2013-08-11 17:10:00,
2013-08-11 12:15:00,82.4,68.6,30.06,WSW,250,3.0,4.0,63,0.00,,---,0.00,VWS V14.01,2013-08-11 17:15:00,
2013-08-11 12:20:00,82.2,68.4,30.06,SSW,192,0.0,4.0,63,0.00,,---,0.00,VWS V14.01,2013-08-11 17:20:00,
2013-08-11 12:25:00,82.4,68.6,30.06,WSW,257,1.0,5.0,63,0.00,,---,0.00,VWS V14.01,2013-08-11 17:25:00,
2013-08-11 12:30:00,82.6,68.7,30.07,SSE,155,0.0,5.0,63,0.00,,---,0.00,VWS V14.01,2013-08-11 17:30:00,
2013-08-11 12:35:00,82.6,68.3,30.07,SW,224,2.0,5.0,62,0.00,,---,0.00,VWS V14.01,2013-08-11 17:35:00,
2013-08-11 12:40:00,82.6,68.3,30.07,SSE,161,0.0,5.0,62,0.00,,---,0.00,VWS V14.01,2013-08-11 17:40:00,
2013-08-11 12:45:00,82.8,68.5,30.06,WSW,244,2.0,5.0,62,0.00,,---,0.00,VWS V14.01,2013-08-11 17:45:00,
2013-08-11 12:51:00,83.0,68.2,30.06,SSE,157,0.0,6.0,61,0.00,,---,0.00,VWS V14.01,2013-08-11 17:51:00,
2013-08-11 12:56:00,83.0,68.7,30.06,East,93,2.0,6.0,62,0.00,,---,0.00,VWS V14.01,2013-08-11 17:56:00,
2013-08-11 13:00:00,82.2,68.8,30.07,SSE,155,2.0,4.0,64,0.00,,---,0.00,VWS V14.01,2013-08-11 18:00:00,
2013-08-11 13:01:00,83.2,68.8,30.06,WSW,249,0.0,3.0,62,0.00,,---,0.00,VWS V14.01,2013-08-11 18:01:00,
2013-08-11 13:06:00,83.4,68.6,30.06,South,184,0.0,5.0,61,0.00,,---,0.00,VWS V14.01,2013-08-11 18:06:00,
2013-08-11 13:11:00,83.6,68.7,30.06,ESE,121,1.0,5.0,61,0.00,,---,0.00,VWS V14.01,2013-08-11 18:11:00,
2013-08-11 13:16:00,83.6,69.2,30.05,WSW,253,2.0,5.0,62,0.00,,---,0.00,VWS V14.01,2013-08-11 18:16:00,
2013-08-11 13:21:00,84.0,69.1,30.05,SE,143,1.0,6.0,61,0.00,,---,0.00,VWS V14.01,2013-08-11 18:21:00,
2013-08-11 13:26:00,84.1,69.7,30.05,WNW,290,3.0,6.0,62,0.00,,---,0.00,VWS V14.01,2013-08-11 18:26:00,
2013-08-11 13:30:00,82.6,68.7,30.07,SSE,155,2.0,5.0,63,0.00,,---,0.00,VWS V14.01,2013-08-11 18:30:00,
2013-08-11 13:31:00,84.1,69.2,30.05,WSW,243,0.0,1.0,61,0.00,,---,0.00,VWS V14.01,2013-08-11 18:31:00,
2013-08-11 13:37:00,84.3,69.4,30.05,WSW,257,1.0,5.0,61,0.00,,---,0.00,VWS V14.01,2013-08-11 18:37:00,
2013-08-11 13:42:00,84.1,68.7,30.05,SSE,155,0.0,5.0,60,0.00,,---,0.00,VWS V14.01,2013-08-11 18:42:00,
2013-08-11 13:47:00,84.0,68.6,30.04,South,180,0.0,5.0,60,0.00,,---,0.00,VWS V14.01,2013-08-11 18:47:00,
2013-08-11 13:52:00,83.8,68.4,30.04,ESE,104,0.0,6.0,60,0.00,,---,0.00,VWS V14.01,2013-08-11 18:52:00,
2013-08-11 13:57:00,83.4,68.1,30.04,ESE,121,0.0,6.0,60,0.00,,---,0.00,VWS V14.01,2013-08-11 18:57:00,
2013-08-11 14:00:00,83.2,68.8,30.06,WSW,249,3.0,6.0,62,0.00,,---,0.00,VWS V14.01,2013-08-11 19:00:00,
2013-08-11 14:02:00,83.2,67.9,30.04,SSE,164,6.0,6.0,60,0.00,,---,0.00,VWS V14.01,2013-08-11 19:02:00,
2013-08-11 14:07:00,83.4,68.1,30.04,SE,131,1.0,6.0,60,0.00,,---,0.00,VWS V14.01,2013-08-11 19:07:00,
2013-08-11 14:12:00,83.8,68.4,30.04,SSE,168,1.0,6.0,60,0.00,,---,0.00,VWS V14.01,2013-08-11 19:12:00,
2013-08-11 14:17:00,84.1,68.7,30.04,ESE,111,2.0,7.0,60,0.00,,---,0.00,VWS V14.01,2013-08-11 19:17:00,
2013-08-11 14:23:00,84.3,68.9,30.04,SSE,155,4.0,7.0,60,0.00,,---,0.00,VWS V14.01,2013-08-11 19:23:00,
2013-08-11 14:28:00,84.5,68.6,30.04,West,263,3.0,7.0,59,0.00,,---,0.00,VWS V14.01,2013-08-11 19:28:00,
2013-08-11 14:30:00,84.3,69.4,30.05,WSW,245,1.0,6.0,61,0.00,,---,0.00,VWS V14.01,2013-08-11 19:30:00,
2013-08-11 14:32:00,84.5,68.6,30.03,WSW,246,4.0,4.0,59,0.00,,---,0.00,VWS V14.01,2013-08-11 19:32:00,
2013-08-11 14:37:00,84.7,68.8,30.03,WSW,244,1.0,4.0,59,0.00,,---,0.00,VWS V14.01,2013-08-11 19:37:00,
2013-08-11 14:42:00,84.5,68.6,30.03,SSW,199,0.0,4.0,59,0.00,,---,0.00,VWS V14.01,2013-08-11 19:42:00,
2013-08-11 14:48:00,85.1,69.2,30.03,SE,131,0.0,4.0,59,0.00,,---,0.00,VWS V14.01,2013-08-11 19:48:00,
2013-08-11 14:53:00,85.3,69.4,30.03,SW,234,1.0,6.0,59,0.00,,---,0.00,VWS V14.01,2013-08-11 19:53:00,
2013-08-11 14:58:00,85.1,68.7,30.03,West,264,3.0,6.0,58,0.00,,---,0.00,VWS V14.01,2013-08-11 19:58:00,
2013-08-11 15:00:00,83.4,68.1,30.04,SE,128,2.0,6.0,60,0.00,,---,0.00,VWS V14.01,2013-08-11 20:00:00,
2013-08-11 15:03:00,84.5,68.1,30.03,SSE,165,2.0,6.0,58,0.00,,---,0.00,VWS V14.01,2013-08-11 20:03:00,
2013-08-11 15:08:00,84.7,68.3,30.03,SSW,201,0.0,6.0,58,0.00,,---,0.00,VWS V14.01,2013-08-11 20:08:00,
2013-08-11 15:14:00,84.9,68.5,30.03,WSW,238,3.0,6.0,58,0.00,,---,0.00,VWS V14.01,2013-08-11 20:14:00,
2013-08-11 15:19:00,85.1,68.7,30.02,West,262,2.0,6.0,58,0.00,,---,0.00,VWS V14.01,2013-08-11 20:19:00,
2013-08-11 15:24:00,85.3,68.9,30.02,WNW,286,0.0,8.0,58,0.00,,---,0.00,VWS V14.01,2013-08-11 20:24:00,
2013-08-11 15:29:00,85.3,68.3,30.02,SSE,155,2.0,8.0,57,0.00,,---,0.00,VWS V14.01,2013-08-11 20:29:00,
2013-08-11 15:30:00,84.5,68.6,30.03,SSE,165,1.0,7.0,59,0.00,,---,0.00,VWS V14.01,2013-08-11 20:30:00,
2013-08-11 15:34:00,85.5,68.5,30.02,SW,234,2.0,2.0,57,0.00,,---,0.00,VWS V14.01,2013-08-11 20:34:00,
2013-08-11 15:39:00,85.5,68.0,30.02,SW,218,1.0,3.0,56,0.00,,---,0.00,VWS V14.01,2013-08-11 20:39:00,
2013-08-11 15:44:00,85.5,68.0,30.02,SW,227,0.0,4.0,56,0.00,,---,0.00,VWS V14.01,2013-08-11 20:44:00,
2013-08-11 15:49:00,85.3,67.8,30.02,ESE,112,1.0,4.0,56,0.00,,---,0.00,VWS V14.01,2013-08-11 20:49:00,
2013-08-11 15:54:00,85.7,68.2,30.02,SE,145,1.0,4.0,56,0.00,,---,0.00,VWS V14.01,2013-08-11 20:54:00,
2013-08-11 15:59:00,85.9,68.4,30.02,SE,137,0.0,5.0,56,0.00,,---,0.00,VWS V14.01,2013-08-11 20:59:00,
2013-08-11 16:00:00,84.7,68.3,30.03,WSW,247,2.0,6.0,58,0.00,,---,0.00,VWS V14.01,2013-08-11 21:00:00,
2013-08-11 16:04:00,85.9,68.4,30.02,SE,134,1.0,2.0,56,0.00,,---,0.00,VWS V14.01,2013-08-11 21:04:00,
2013-08-11 16:09:00,86.1,68.1,30.02,South,185,1.0,3.0,55,0.00,,---,0.00,VWS V14.01,2013-08-11 21:09:00,
2013-08-11 16:14:00,85.7,67.7,30.02,South,189,1.0,3.0,55,0.00,,---,0.00,VWS V14.01,2013-08-11 21:14:00,
2013-08-11 16:19:00,85.7,67.7,30.01,South,174,0.0,6.0,55,0.00,,---,0.00,VWS V14.01,2013-08-11 21:19:00,
2013-08-11 16:24:00,85.5,67.5,30.01,SE,130,2.0,6.0,55,0.00,,---,0.00,VWS V14.01,2013-08-11 21:24:00,
2013-08-11 16:29:00,85.3,67.3,30.01,SE,141,0.0,6.0,55,0.00,,---,0.00,VWS V14.01,2013-08-11 21:29:00,
2013-08-11 16:30:00,85.3,68.4,30.02,SW,217,2.0,8.0,57,0.00,,---,0.00,VWS V14.01,2013-08-11 21:30:00,
2013-08-11 16:35:00,85.1,67.1,30.01,South,169,0.0,3.0,55,0.00,,---,0.00,VWS V14.01,2013-08-11 21:35:00,
2013-08-11 16:40:00,85.1,67.1,30.01,SW,215,2.0,3.0,55,0.00,,---,0.00,VWS V14.01,2013-08-11 21:40:00,
2013-08-11 16:45:00,85.1,67.1,30.01,SSW,213,0.0,3.0,55,0.00,,---,0.00,VWS V14.01,2013-08-11 21:45:00,
2013-08-11 16:50:00,85.1,67.1,30.01,SW,217,2.0,3.0,55,0.00,,---,0.00,VWS V14.01,2013-08-11 21:50:00,
2013-08-11 16:55:00,85.3,67.3,30.01,WSW,244,1.0,4.0,55,0.00,,---,0.00,VWS V14.01,2013-08-11 21:55:00,
2013-08-11 17:00:00,85.3,67.3,30.00,WSW,243,1.0,4.0,55,0.00,,---,0.00,VWS V14.01,2013-08-11 22:00:00,
2013-08-11 17:05:00,85.3,67.3,30.00,WSW,248,1.0,4.0,55,0.00,,---,0.00,VWS V14.01,2013-08-11 22:05:00,
2013-08-11 17:10:00,85.5,67.5,30.00,South,184,0.0,4.0,55,0.00,,---,0.00,VWS V14.01,2013-08-11 22:10:00,
2013-08-11 17:15:00,85.5,67.5,30.00,SE,128,1.0,4.0,55,0.00,,---,0.00,VWS V14.01,2013-08-11 22:15:00,
2013-08-11 17:20:00,85.1,67.1,30.00,SE,145,1.0,4.0,55,0.00,,---,0.00,VWS V14.01,2013-08-11 22:20:00,
2013-08-11 17:25:00,84.9,67.5,30.00,ESE,111,0.0,6.0,56,0.00,,---,0.00,VWS V14.01,2013-08-11 22:25:00,
2013-08-11 17:30:00,85.1,67.7,29.99,SSE,150,0.0,6.0,56,0.00,,---,0.00,VWS V14.01,2013-08-11 22:30:00,
2013-08-11 17:35:00,84.9,66.9,29.99,SE,141,0.0,3.0,55,0.00,,---,0.00,VWS V14.01,2013-08-11 22:35:00,
2013-08-11 17:40:00,84.7,66.8,29.99,SE,140,0.0,3.0,55,0.00,,---,0.00,VWS V14.01,2013-08-11 22:40:00,
2013-08-11 17:45:00,84.3,66.9,29.99,SE,132,3.0,3.0,56,0.00,,---,0.00,VWS V14.01,2013-08-11 22:45:00,
2013-08-11 17:50:00,84.1,66.7,29.99,SE,132,1.0,3.0,56,0.00,,---,0.00,VWS V14.01,2013-08-11 22:50:00,
2013-08-11 17:55:00,84.3,66.9,29.99,SE,144,1.0,3.0,56,0.00,,---,0.00,VWS V14.01,2013-08-11 22:55:00,
2013-08-11 18:00:00,84.5,67.1,29.99,SE,130,0.0,3.0,56,0.00,,---,0.00,VWS V14.01,2013-08-11 23:00:00,
2013-08-11 18:06:00,84.5,67.1,29.99,SE,128,0.0,3.0,56,0.00,,---,0.00,VWS V14.01,2013-08-11 23:06:00,
2013-08-11 18:11:00,84.3,66.9,29.99,SE,134,0.0,3.0,56,0.00,,---,0.00,VWS V14.01,2013-08-11 23:11:00,
2013-08-11 18:16:00,84.1,67.2,29.98,SE,134,0.0,3.0,57,0.00,,---,0.00,VWS V14.01,2013-08-11 23:16:00,
2013-08-11 18:21:00,83.8,67.0,29.98,SE,138,0.0,3.0,57,0.00,,---,0.00,VWS V14.01,2013-08-11 23:21:00,
2013-08-11 18:26:00,83.4,66.6,29.98,SE,146,0.0,3.0,57,0.00,,---,0.00,VWS V14.01,2013-08-11 23:26:00,
2013-08-11 18:30:00,85.1,67.1,29.99,SSE,150,1.0,6.0,55,0.00,,---,0.00,VWS V14.01,2013-08-11 23:30:00,
2013-08-11 18:31:00,83.2,66.9,29.98,SSE,165,0.0,0.0,58,0.00,,---,0.00,VWS V14.01,2013-08-11 23:31:00,
2013-08-11 18:36:00,83.0,66.7,29.98,SSE,165,0.0,1.0,58,0.00,,---,0.00,VWS V14.01,2013-08-11 23:36:00,
2013-08-11 18:41:00,83.0,67.2,29.98,SSE,164,0.0,1.0,59,0.00,,---,0.00,VWS V14.01,2013-08-11 23:41:00,
2013-08-11 18:46:00,82.8,67.0,29.97,SSE,164,0.0,1.0,59,0.00,,---,0.00,VWS V14.01,2013-08-11 23:46:00,
2013-08-11 18:51:00,82.6,66.8,29.97,SSE,164,0.0,1.0,59,0.00,,---,0.00,VWS V14.01,2013-08-11 23:51:00,
2013-08-11 18:56:00,82.6,67.3,29.97,SSE,164,0.0,1.0,60,0.00,,---,0.00,VWS V14.01,2013-08-11 23:56:00,
2013-08-11 19:00:00,84.5,67.1,29.99,SE,130,0.0,3.0,56,0.00,,---,0.00,VWS V14.01,2013-08-12 00:00:00,
2013-08-11 19:01:00,82.4,67.1,29.97,SSE,164,0.0,0.0,60,0.00,,---,0.00,VWS V14.01,2013-08-12 00:01:00,
2013-08-11 19:06:00,82.2,66.9,29.97,SSE,164,0.0,1.0,60,0.00,,---,0.00,VWS V14.01,2013-08-12 00:06:00,
2013-08-11 19:11:00,82.0,67.2,29.97,SSE,164,0.0,1.0,61,0.00,,---,0.00,VWS V14.01,2013-08-12 00:11:00,
2013-08-11 19:16:00,82.0,67.2,29.97,SSE,164,0.0,1.0,61,0.00,,---,0.00,VWS V14.01,2013-08-12 00:16:00,
2013-08-11 19:21:00,81.8,67.1,29.97,SSE,164,0.0,1.0,61,0.00,,---,0.00,VWS V14.01,2013-08-12 00:21:00,
2013-08-11 19:26:00,81.6,67.3,29.97,SSE,164,0.0,1.0,62,0.00,,---,0.00,VWS V14.01,2013-08-12 00:26:00,
2013-08-11 19:30:00,83.2,66.9,29.98,SSE,165,0.0,3.0,58,0.00,,---,0.00,VWS V14.01,2013-08-12 00:30:00,
2013-08-11 19:31:00,81.6,67.3,29.97,South,175,0.0,0.0,62,0.00,,---,0.00,VWS V14.01,2013-08-12 00:31:00,
2013-08-11 19:37:00,81.4,67.6,29.97,South,175,0.0,0.0,63,0.00,,---,0.00,VWS V14.01,2013-08-12 00:37:00,
2013-08-11 19:42:00,81.2,67.4,29.97,South,175,0.0,1.0,63,0.00,,---,0.00,VWS V14.01,2013-08-12 00:42:00,
2013-08-11 19:47:00,81.1,67.8,29.97,South,175,0.0,1.0,64,0.00,,---,0.00,VWS V14.01,2013-08-12 00:47:00,
2013-08-11 19:52:00,80.9,67.6,29.97,South,175,0.0,1.0,64,0.00,,---,0.00,VWS V14.01,2013-08-12 00:52:00,
2013-08-11 19:57:00,80.5,67.2,29.97,South,175,0.0,1.0,64,0.00,,---,0.00,VWS V14.01,2013-08-12 00:57:00,
2013-08-11 20:00:00,82.4,67.1,29.97,SSE,164,0.0,1.0,60,0.00,,---,0.00,VWS V14.01,2013-08-12 01:00:00,
2013-08-11 20:02:00,80.3,67.5,29.96,South,175,0.0,0.0,65,0.00,,---,0.00,VWS V14.01,2013-08-12 01:02:00,
2013-08-11 20:07:00,79.9,67.1,29.96,South,175,0.0,0.0,65,0.00,,---,0.00,VWS V14.01,2013-08-12 01:07:00,
2013-08-11 20:12:00,79.8,67.4,29.96,South,175,0.0,1.0,66,0.00,,---,0.00,VWS V14.01,2013-08-12 01:12:00,
2013-08-11 20:17:00,79.6,67.2,29.96,South,175,0.0,1.0,66,0.00,,---,0.00,VWS V14.01,2013-08-12 01:17:00,
2013-08-11 20:23:00,79.2,67.3,29.96,South,175,0.0,1.0,67,0.00,,---,0.00,VWS V14.01,2013-08-12 01:23:00,
2013-08-11 20:28:00,79.0,67.1,29.96,South,175,0.0,1.0,67,0.00,,---,0.00,VWS V14.01,2013-08-12 01:28:00,
2013-08-11 20:30:00,81.6,67.3,29.97,South,175,0.0,1.0,62,0.00,,---,0.00,VWS V14.01,2013-08-12 01:30:00,
2013-08-11 20:33:00,78.8,67.4,29.97,South,175,0.0,0.0,68,0.00,,---,0.00,VWS V14.01,2013-08-12 01:33:00,
2013-08-11 20:38:00,78.5,67.1,29.97,South,175,0.0,0.0,68,0.00,,---,0.00,VWS V14.01,2013-08-12 01:38:00,
2013-08-11 20:43:00,78.3,66.9,29.97,South,175,0.0,0.0,68,0.00,,---,0.00,VWS V14.01,2013-08-12 01:43:00,
2013-08-11 20:48:00,77.9,66.9,29.97,South,175,0.0,0.0,69,0.00,,---,0.00,VWS V14.01,2013-08-12 01:48:00,
2013-08-11 20:53:00,77.7,66.7,29.97,South,175,0.0,0.0,69,0.00,,---,0.00,VWS V14.01,2013-08-12 01:53:00,
2013-08-11 20:58:00,77.6,66.6,29.97,South,175,0.0,0.0,69,0.00,,---,0.00,VWS V14.01,2013-08-12 01:58:00,
2013-08-11 21:00:00,80.3,67.5,29.96,South,175,0.0,1.0,65,0.00,,---,0.00,VWS V14.01,2013-08-12 02:00:00,
2013-08-11 21:03:00,77.4,66.4,29.97,South,175,0.0,0.0,69,0.00,,---,0.00,VWS V14.01,2013-08-12 02:03:00,
2013-08-11 21:08:00,77.2,66.7,29.97,South,175,0.0,0.0,70,0.00,,---,0.00,VWS V14.01,2013-08-12 02:08:00,
2013-08-11 21:13:00,76.8,66.3,29.97,South,175,0.0,0.0,70,0.00,,---,0.00,VWS V14.01,2013-08-12 02:13:00,
2013-08-11 21:18:00,76.7,66.2,29.97,South,175,0.0,0.0,70,0.00,,---,0.00,VWS V14.01,2013-08-12 02:18:00,
2013-08-11 21:23:00,76.5,66.4,29.97,South,175,0.0,0.0,71,0.00,,---,0.00,VWS V14.01,2013-08-12 02:23:00,
2013-08-11 21:28:00,76.3,66.2,29.97,South,175,0.0,0.0,71,0.00,,---,0.00,VWS V14.01,2013-08-12 02:28:00,
2013-08-11 21:30:00,78.8,67.4,29.97,South,175,0.0,1.0,68,0.00,,---,0.00,VWS V14.01,2013-08-12 02:30:00,
2013-08-11 21:33:00,76.1,66.0,29.97,South,175,0.0,0.0,71,0.00,,---,0.00,VWS V14.01,2013-08-12 02:33:00,
2013-08-11 21:38:00,76.0,66.3,29.97,South,175,0.0,0.0,72,0.00,,---,0.00,VWS V14.01,2013-08-12 02:38:00,
2013-08-11 21:43:00,75.8,66.1,29.97,South,175,0.0,0.0,72,0.00,,---,0.00,VWS V14.01,2013-08-12 02:43:00,
2013-08-11 21:48:00,75.6,66.3,29.97,South,175,0.0,0.0,73,0.00,,---,0.00,VWS V14.01,2013-08-12 02:48:00,
2013-08-11 21:53:00,75.4,66.2,29.97,South,175,0.0,0.0,73,0.00,,---,0.00,VWS V14.01,2013-08-12 02:53:00,
2013-08-11 21:59:00,75.3,66.1,29.97,South,175,0.0,0.0,73,0.00,,---,0.00,VWS V14.01,2013-08-12 02:59:00,
2013-08-11 22:00:00,77.4,66.4,29.97,South,175,0.0,0.0,69,0.00,,---,0.00,VWS V14.01,2013-08-12 03:00:00,
2013-08-11 22:04:00,75.1,65.9,29.98,South,175,0.0,0.0,73,0.00,,---,0.00,VWS V14.01,2013-08-12 03:04:00,
2013-08-11 22:09:00,74.9,66.1,29.98,South,175,0.0,0.0,74,0.00,,---,0.00,VWS V14.01,2013-08-12 03:09:00,
2013-08-11 22:14:00,74.6,65.8,29.98,South,175,0.0,0.0,74,0.00,,---,0.00,VWS V14.01,2013-08-12 03:14:00,
2013-08-11 22:19:00,74.2,65.8,29.99,South,175,0.0,0.0,75,0.00,,---,0.00,VWS V14.01,2013-08-12 03:19:00,
2013-08-11 22:24:00,73.9,65.5,29.99,South,175,0.0,0.0,75,0.00,,---,0.00,VWS V14.01,2013-08-12 03:24:00,
2013-08-11 22:30:00,73.7,65.7,29.99,South,175,0.0,0.0,76,0.00,,---,0.00,VWS V14.01,2013-08-12 03:30:00,
2013-08-11 22:35:00,73.5,65.5,29.99,South,175,0.0,0.0,76,0.00,,---,0.00,VWS V14.01,2013-08-12 03:35:00,
2013-08-11 22:40:00,73.7,66.1,29.99,South,175,0.0,0.0,77,0.00,,---,0.00,VWS V14.01,2013-08-12 03:40:00,
2013-08-11 22:45:00,73.9,66.6,29.99,South,175,0.0,0.0,78,0.00,,---,0.00,VWS V14.01,2013-08-12 03:45:00,
2013-08-11 22:50:00,73.9,66.6,29.99,South,175,0.0,0.0,78,0.00,,---,0.00,VWS V14.01,2013-08-12 03:50:00,
2013-08-11 22:55:00,73.9,66.6,29.99,South,175,0.0,0.0,78,0.00,,---,0.00,VWS V14.01,2013-08-12 03:55:00,
2013-08-11 23:00:00,73.7,66.4,29.99,South,175,0.0,0.0,78,0.00,,---,0.00,VWS V14.01,2013-08-12 04:00:00,
2013-08-11 23:01:00,73.7,66.4,29.99,South,175,0.0,0.0,78,0.00,,---,0.00,VWS V14.01,2013-08-12 04:01:00,
2013-08-11 23:02:00,73.5,66.2,29.99,South,175,0.0,0.0,78,0.00,,---,0.00,VWS V14.01,2013-08-12 04:02:00,
2013-08-11 23:04:00,73.5,66.2,29.99,South,175,0.0,0.0,78,0.00,,---,0.00,VWS V14.01,2013-08-12 04:04:00,
2013-08-11 23:09:00,73.2,66.3,29.99,South,175,0.0,0.0,79,0.00,,---,0.00,VWS V14.01,2013-08-12 04:09:00,
2013-08-11 23:14:00,73.0,66.1,29.99,South,175,0.0,0.0,79,0.00,,---,0.00,VWS V14.01,2013-08-12 04:14:00,
2013-08-11 23:19:00,72.7,65.8,29.99,South,175,0.0,0.0,79,0.00,,---,0.00,VWS V14.01,2013-08-12 04:19:00,
2013-08-11 23:24:00,72.5,66.0,29.99,South,175,0.0,0.0,80,0.00,,---,0.00,VWS V14.01,2013-08-12 04:24:00,
2013-08-11 23:29:00,72.3,65.8,29.99,South,175,0.0,0.0,80,0.00,,---,0.00,VWS V14.01,2013-08-12 04:29:00,
2013-08-11 23:30:00,73.7,65.7,29.99,South,175,0.0,0.0,76,0.00,,---,0.00,VWS V14.01,2013-08-12 04:30:00,
2013-08-11 23:34:00,72.1,65.9,29.99,South,175,0.0,0.0,81,0.00,,---,0.00,VWS V14.01,2013-08-12 04:34:00,
2013-08-11 23:39:00,72.0,65.9,29.99,South,175,0.0,0.0,81,0.00,,---,0.00,VWS V14.01,2013-08-12 04:39:00,
2013-08-11 23:44:00,72.0,65.9,29.99,South,175,0.0,0.0,81,0.00,,---,0.00,VWS V14.01,2013-08-12 04:44:00,
2013-08-11 23:49:00,71.8,66.0,29.99,South,175,0.0,0.0,82,0.00,,---,0.00,VWS V14.01,2013-08-12 04:49:00,
2013-08-11 23:54:00,71.6,65.8,29.99,South,175,0.0,0.0,82,0.00,,---,0.00,VWS V14.01,2013-08-12 04:54:00,
2013-08-11 23:59:00,71.5,65.7,29.99,South,175,0.0,0.0,82,0.00,,---,0.00,VWS V14.01,2013-08-12 04:59:00,